Time,TemperatureF,DewpointF,PressureIn,WindDirection,WindDirectionDegrees,WindSpeedMPH,WindSpeedGustMPH,Humidity,HourlyPrecipIn,Conditions,Clouds,dailyrainin,SolarRadiationWatts/m^2,SoftwareType,DateUTC
2013-05-10 00:02:00,69.0,60.0,-100.00,NW,316,1.0,7.0,73,0.00,,,0.01,0.000000,,2013-05-10 05:02:00,
2013-05-10 00:32:00,67.0,60.0,-100.00,SSE,155,2.0,5.0,77,0.00,,,0.01,0.000000,,2013-05-10 05:32:00,
2013-05-10 00:42:00,67.0,60.0,-100.00,SSE,155,2.0,5.0,77,0.00,,,0.01,0.000000,,2013-05-10 05:42:00,
2013-05-10 00:52:00,67.0,60.0,-100.00,SSE,155,2.0,5.0,77,0.00,,,0.01,0.000000,,2013-05-10 05:52:00,
2013-05-10 01:01:00,67.0,60.0,-100.00,SSE,155,2.0,5.0,77,0.00,,,0.01,0.000000,,2013-05-10 06:01:00,
2013-05-10 01:32:00,68.0,60.0,-100.00,South,175,3.0,7.0,76,0.00,,,0.01,0.000000,,2013-05-10 06:32:00,
2013-05-10 01:42:00,68.0,60.0,-100.00,South,175,3.0,7.0,76,0.00,,,0.01,0.000000,,2013-05-10 06:42:00,
2013-05-10 01:52:00,68.0,60.0,-100.00,South,175,3.0,7.0,76,0.00,,,0.01,0.000000,,2013-05-10 06:52:00,
2013-05-10 02:02:00,68.0,60.0,-100.00,South,175,3.0,7.0,76,0.00,,,0.01,0.000000,,2013-05-10 07:02:00,
2013-05-10 03:32:00,65.0,60.0,-100.00,ESE,123,2.0,3.0,83,-99.99,,,0.01,0.000000,,2013-05-10 08:32:00,
2013-05-10 03:42:00,65.0,60.0,-100.00,ESE,123,2.0,3.0,83,-99.99,,,0.01,0.000000,,2013-05-10 08:42:00,
2013-05-10 03:52:00,65.0,60.0,-100.00,ESE,123,2.0,3.0,83,-99.99,,,0.01,0.000000,,2013-05-10 08:52:00,
2013-05-10 04:01:00,65.0,60.0,-100.00,ESE,123,2.0,3.0,83,-99.99,,,0.01,0.000000,,2013-05-10 09:01:00,
2013-05-10 04:33:00,65.0,61.0,-100.00,South,175,2.0,5.0,86,0.00,,,0.01,0.000000,,2013-05-10 09:33:00,
2013-05-10 04:43:00,65.0,61.0,-100.00,South,175,2.0,5.0,86,0.00,,,0.01,0.000000,,2013-05-10 09:43:00,
2013-05-10 04:52:00,65.0,61.0,-100.00,South,175,2.0,5.0,86,0.00,,,0.01,0.000000,,2013-05-10 09:52:00,
2013-05-10 05:03:00,65.0,61.0,-100.00,South,175,2.0,5.0,86,0.00,,,0.01,0.000000,,2013-05-10 10:03:00,
2013-05-10 05:33:00,66.0,63.0,-100.00,SW,231,3.0,8.0,89,0.00,,,0.01,0.000000,,2013-05-10 10:33:00,
2013-05-10 05:42:00,66.0,63.0,-100.00,SW,231,3.0,8.0,89,0.00,,,0.01,0.000000,,2013-05-10 10:42:00,
2013-05-10 05:53:00,66.0,63.0,-100.00,SW,231,3.0,8.0,89,0.00,,,0.01,0.000000,,2013-05-10 10:53:00,
2013-05-10 06:02:00,66.0,63.0,-100.00,SW,231,3.0,8.0,89,0.00,,,0.01,0.000000,,2013-05-10 11:02:00,
2013-05-10 09:32:00,66.0,65.0,-100.00,SW,225,3.0,7.0,96,-99.99,,,0.08,140.000000,,2013-05-10 14:32:00,
2013-05-10 09:42:00,66.0,65.0,-100.00,SW,225,3.0,7.0,96,-99.99,,,0.08,140.000000,,2013-05-10 14:42:00,
2013-05-10 09:52:00,66.0,65.0,-100.00,SW,225,3.0,7.0,96,-99.99,,,0.08,140.000000,,2013-05-10 14:52:00,
2013-05-10 10:02:00,66.0,65.0,-100.00,SW,225,3.0,7.0,96,-99.99,,,0.08,140.000000,,2013-05-10 15:02:00,
2013-05-10 11:33:00,70.0,64.0,-100.00,WSW,248,8.0,14.0,81,-99.99,,,0.08,528.000000,,2013-05-10 16:33:00,
2013-05-10 11:43:00,70.0,64.0,-100.00,WSW,248,8.0,14.0,81,-99.99,,,0.08,528.000000,,2013-05-10 16:43:00,
2013-05-10 11:53:00,70.0,64.0,-100.00,WSW,248,8.0,14.0,81,-99.99,,,0.08,528.000000,,2013-05-10 16:53:00,
2013-05-10 12:02:00,70.0,64.0,-100.00,WSW,248,8.0,14.0,81,-99.99,,,0.08,528.000000,,2013-05-10 17:02:00,
2013-05-10 12:08:00,-999.0,-99.9,-100.00,WNW,288,8.0,13.0,72,0.00,,,0.08,630.000000,,2013-05-10 17:08:00,
2013-05-10 12:32:00,71.0,62.0,-100.00,WNW,288,8.0,13.0,72,0.00,,,0.08,630.000000,,2013-05-10 17:32:00,
2013-05-10 12:42:00,71.0,62.0,-100.00,WNW,288,8.0,13.0,72,0.00,,,0.08,630.000000,,2013-05-10 17:42:00,
2013-05-10 12:52:00,71.0,62.0,-100.00,WNW,288,8.0,13.0,72,0.00,,,0.08,630.000000,,2013-05-10 17:52:00,
2013-05-10 13:35:00,74.0,63.0,-100.00,West,274,8.0,14.0,68,0.17,,,0.25,680.000000,,2013-05-10 18:35:00,
2013-05-10 13:43:00,74.0,63.0,-100.00,West,274,8.0,14.0,68,0.17,,,0.25,680.000000,,2013-05-10 18:43:00,
2013-05-10 13:54:00,74.0,63.0,-100.00,West,274,8.0,14.0,68,0.17,,,0.25,680.000000,,2013-05-10 18:54:00,
2013-05-10 14:02:00,74.0,63.0,-100.00,West,274,8.0,14.0,68,0.17,,,0.25,680.000000,,2013-05-10 19:02:00,
2013-05-10 14:32:00,73.0,61.0,-100.00,WSW,257,8.0,14.0,65,0.00,,,-99.99,722.000000,,2013-05-10 19:32:00,
2013-05-10 14:42:00,73.0,61.0,-100.00,WSW,257,8.0,14.0,65,0.00,,,-99.99,722.000000,,2013-05-10 19:42:00,
2013-05-10 14:52:00,73.0,61.0,-100.00,WSW,257,8.0,14.0,65,0.00,,,-99.99,722.000000,,2013-05-10 19:52:00,
2013-05-10 15:01:00,73.0,61.0,-100.00,WSW,257,8.0,14.0,65,0.00,,,-99.99,722.000000,,2013-05-10 20:01:00,
2013-05-10 15:32:00,75.0,64.0,-100.00,WNW,288,6.0,10.0,69,0.06,,,0.31,627.000000,,2013-05-10 20:32:00,
2013-05-10 15:42:00,75.0,64.0,-100.00,WNW,288,6.0,10.0,69,0.06,,,0.31,627.000000,,2013-05-10 20:42:00,
2013-05-10 15:52:00,75.0,64.0,-100.00,WNW,288,6.0,10.0,69,0.06,,,0.31,627.000000,,2013-05-10 20:52:00,
2013-05-10 16:02:00,75.0,64.0,-100.00,WNW,288,6.0,10.0,69,0.06,,,0.31,627.000000,,2013-05-10 21:02:00,
2013-05-10 17:32:00,74.0,63.0,-100.00,NNW,332,3.0,7.0,68,-99.99,,,0.31,204.000000,,2013-05-10 22:32:00,
2013-05-10 17:42:00,74.0,63.0,-100.00,NNW,332,3.0,7.0,68,-99.99,,,0.31,204.000000,,2013-05-10 22:42:00,
2013-05-10 17:52:00,74.0,63.0,-100.00,NNW,332,3.0,7.0,68,-99.99,,,0.31,204.000000,,2013-05-10 22:52:00,
2013-05-10 18:02:00,74.0,63.0,-100.00,NNW,332,3.0,7.0,68,-99.99,,,0.31,204.000000,,2013-05-10 23:02:00,
2013-05-10 18:33:00,72.0,60.0,-100.00,NNW,344,9.0,14.0,67,0.00,,,0.31,230.000000,,2013-05-10 23:33:00,
2013-05-10 18:42:00,72.0,60.0,-100.00,NNW,344,9.0,14.0,67,0.00,,,0.31,230.000000,,2013-05-10 23:42:00,
2013-05-10 18:52:00,72.0,60.0,-100.00,NNW,344,9.0,14.0,67,0.00,,,0.31,230.000000,,2013-05-10 23:52:00,
2013-05-10 19:02:00,72.0,60.0,-100.00,NNW,344,9.0,14.0,67,0.00,,,0.31,230.000000,,2013-05-11 00:02:00,
2013-05-10 20:32:00,67.0,59.0,-100.00,NNW,338,7.0,22.0,76,-99.99,,,0.31,57.000000,,2013-05-11 01:32:00,
2013-05-10 20:42:00,67.0,59.0,-100.00,NNW,338,7.0,22.0,76,-99.99,,,0.31,57.000000,,2013-05-11 01:42:00,
2013-05-10 20:52:00,67.0,59.0,-100.00,NNW,338,7.0,22.0,76,-99.99,,,0.31,57.000000,,2013-05-11 01:52:00,
2013-05-10 21:02:00,67.0,59.0,-100.00,NNW,338,7.0,22.0,76,-99.99,,,0.31,57.000000,,2013-05-11 02:02:00,
2013-05-10 21:32:00,64.0,57.0,-100.00,North,356,7.0,16.0,79,0.00,,,0.31,0.000000,,2013-05-11 02:32:00,
2013-05-10 21:42:00,64.0,57.0,-100.00,North,356,7.0,16.0,79,0.00,,,0.31,0.000000,,2013-05-11 02:42:00,
2013-05-10 21:52:00,64.0,57.0,-100.00,North,356,7.0,16.0,79,0.00,,,0.31,0.000000,,2013-05-11 02:52:00,
2013-05-10 22:01:00,64.0,57.0,-100.00,North,356,7.0,16.0,79,0.00,,,0.31,0.000000,,2013-05-11 03:01:00,
2013-05-10 22:33:00,62.0,55.0,-100.00,North,4,8.0,15.0,79,0.00,,,0.31,0.000000,,2013-05-11 03:33:00,
2013-05-10 22:43:00,62.0,55.0,-100.00,North,4,8.0,15.0,79,0.00,,,0.31,0.000000,,2013-05-11 03:43:00,
2013-05-10 22:53:00,62.0,55.0,-100.00,North,4,8.0,15.0,79,0.00,,,0.31,0.000000,,2013-05-11 03:53:00,
2013-05-10 23:02:00,62.0,55.0,-100.00,North,4,8.0,15.0,79,0.00,,,0.31,0.000000,,2013-05-11 04:02:00,
2013-05-10 23:33:00,60.0,54.0,-100.00,North,352,6.0,13.0,82,0.00,,,0.31,0.000000,,2013-05-11 04:33:00,
2013-05-10 23:43:00,60.0,54.0,-100.00,North,352,6.0,13.0,82,0.00,,,0.31,0.000000,,2013-05-11 04:43:00,
2013-05-10 23:52:00,60.0,54.0,-100.00,North,352,6.0,13.0,82,0.00,,,0.31,0.000000,,2013-05-11 04:52:00,